Starlink 30333

operational
NORAD ID: 57702 Int'l Des: 2023-129 Owner: SPXS Country: US Constellation: starlink
LEOCIRCULAR

About Starlink 30333

Description loading...

Live Position

Loading 3D Globe...

Upcoming Passes

Altitude History

Altitude vs Time

uPlot chart will show altitude changes over time

Two-Line Element Set

1 57702U 23129E 25302.81384756 -.00000845 00000-0 -47533-4 0 9997
2 57702 43.0015 111.7468 0001027 264.7399 95.3326 15.02527859120964
Epoch: Oct 29, 2025 • Age: 32 hours

Current Status

Altitude 562.6 km
Velocity 7.59 km/s
Sub-Earth Point 41.25°N, 116.78°E
Launch Date Aug 27, 2023
Age 2.1 years
Type internet

Technical Details

Classification Payload
Mass 730.00 kg
Dry Mass 700.00 kg
Total Mass 730.00 kg
Length 0.30 m
Diameter 4.10 m
Span 29.00 m
Shape Box + pan
Manufacturer SPXS
Bus Type Starlink V2M
Phase Status In Orbit
Owner/State SPXS/US

Large Constellations

Loading constellations...